Youngstown, OH

5:11 PM EDT on August 18, 2017 (GMT -0400)
Youngstown-Warren Regional

Weather History for KYNG - August, 2012

Change the Weather History Date:

Monday, August 27, 2012

  Actual Average Record
Temperature  
Mean Temperature 68 °F 68 °F  
Max Temperature 72 °F 79 °F 96 °F (1948)
Min Temperature 64 °F 57 °F 43 °F (1969)
Degree Days  
Heating Degree Days 0 1  
Month to date heating degree days 4 22  
Since 1 June heating degree days 45 104  
Since 1 July heating degree days 4 35  
Cooling Degree Days 3 4  
Month to date cooling degree days 116 138  
Year to date cooling degree days 680 472  
Since 1 June cooling degree days 579 433  
Growing Degree Days 18 (Base 50)    
Moisture  
Dew Point 66 °F    
Average Humidity 87    
Maximum Humidity 100    
Minimum Humidity 73    
Precipitation  
Precipitation 0.76 in 0.11 in 0.92 in (1974)
Month to date precipitation 4.48 2.81  
Year to date precipitation 28.44 25.79  
Snow  
Snow 0.00 in 0.00 in - ()
Month to date snowfall 0.0 0.0  
Since 1 June snowfall T 0.0  
Since 1 July snowfall T 0.0  
Snow Depth 0.00 in    
Sea Level Pressure  
Sea Level Pressure 30.01 in    
Wind  
Wind Speed 5 mph (SSE)    
Max Wind Speed 14 mph    
Max Gust Speed 15 mph    
Visibility 4 miles    
Events Fog , Rain    
T = Trace of Precipitation, MM = Missing Value Source: NWS Daily Summary

Daily Weather History Graph

Daily Weather History Graph

Search for Another Location

Airport or City:

Trip Planner

Search our weather history database for the weather conditions in past years. The results will help you decide how hot, cold, wet, or windy it might be!

Date:

Astronomy

Aug. 27, 2012 Rise Set
Actual Time 6:44 AM EDT 8:02 PM EDT
Civil Twilight 6:15 AM EDT 8:31 PM EDT
Nautical Twilight 5:41 AM EDT 9:05 PM EDT
Astronomical Twilight 5:05 AM EDT 9:41 PM EDT
Moon 5:22 PM EDT (8/27) 2:24 AM EDT (8/27)
Length of Visible Light 14h 15m
Length of Day
13h 18m
Waxing Gibbous, 82% of the Moon is Illuminated
Aug 27
Waxing Gibbous
Aug 31
Full
Sep 8
Last Quarter
Sep 15
New
Sep 22
First Quarter

Hourly Weather History & Observations

Time (EDT) Temp. Dew Point Humidity Pressure Visibility Wind Dir Wind Speed Gust Speed Precip Events Conditions
12:51 AM 69.1 °F 63.0 °F 81% 30.09 in 10.0 mi SE 6.9 mph - N/A   Partly Cloudy
1:51 AM 66.0 °F 62.1 °F 87% 30.07 in 10.0 mi SE 6.9 mph - N/A   Partly Cloudy
2:51 AM 66.0 °F 62.1 °F 87% 30.06 in 10.0 mi SE 8.1 mph - N/A   Clear
3:51 AM 66.0 °F 62.1 °F 87% 30.05 in 10.0 mi SE 8.1 mph - N/A   Clear
4:51 AM 66.0 °F 62.1 °F 87% 30.05 in 10.0 mi SSE 6.9 mph - N/A   Partly Cloudy
5:51 AM 64.9 °F 62.1 °F 90% 30.05 in 10.0 mi SE 6.9 mph - N/A   Scattered Clouds
6:51 AM 64.9 °F 62.1 °F 90% 30.05 in 10.0 mi SSE 6.9 mph - N/A   Scattered Clouds
7:51 AM 68.0 °F 62.1 °F 81% 30.05 in 10.0 mi SSE 6.9 mph - N/A   Mostly Cloudy
8:51 AM 70.0 °F 63.0 °F 78% 30.07 in 10.0 mi Calm Calm - N/A   Overcast
9:51 AM 72.0 °F 63.0 °F 73% 30.07 in 10.0 mi SW 4.6 mph - N/A   Overcast
10:51 AM 71.1 °F 62.1 °F 73% 30.08 in 7.0 mi West 3.5 mph - 0.00 in Rain Light Rain
11:51 AM 70.0 °F 64.0 °F 81% 30.07 in 5.0 mi Calm Calm - 0.00 in Rain Light Rain
12:32 PM 69.8 °F 64.4 °F 83% 30.08 in 2.0 mi Calm Calm - 0.02 in Rain Light Rain
12:51 PM 70.0 °F 66.0 °F 87% 30.05 in 2.0 mi ESE 5.8 mph - 0.09 in Rain Light Rain
1:17 PM 69.8 °F 66.2 °F 88% 30.06 in 3.0 mi ESE 8.1 mph - 0.04 in Rain Light Rain
1:51 PM 70.0 °F 66.9 °F 90% 30.04 in 3.0 mi SE 3.5 mph - 0.06 in Rain Light Rain
2:51 PM 71.1 °F 68.0 °F 90% 30.01 in 3.0 mi East 8.1 mph - 0.01 in Rain Light Rain
3:02 PM 71.6 °F 68.0 °F 88% 30.02 in 2.5 mi East 6.9 mph - 0.00 in Rain Light Rain
3:51 PM 70.0 °F 68.0 °F 93% 30.00 in 1.0 mi WNW 4.6 mph - 0.14 in Rain Light Rain
4:15 PM 69.8 °F 68.0 °F 94% 30.01 in 0.8 mi Calm Calm - 0.09 in Rain Light Rain
4:33 PM 69.8 °F 68.0 °F 94% 30.00 in 2.0 mi ESE 4.6 mph - 0.10 in Rain Light Rain
4:51 PM 70.0 °F 68.0 °F 93% 29.98 in 1.5 mi Calm Calm - 0.10 in Rain Rain
5:30 PM 71.6 °F 69.8 °F 94% 29.97 in 2.5 mi SE 6.9 mph - 0.05 in Rain Light Rain
5:51 PM 72.0 °F 69.1 °F 91% 29.95 in 2.5 mi South 6.9 mph - 0.05 in   Overcast
6:51 PM 72.0 °F 70.0 °F 93% 29.94 in 2.5 mi South 6.9 mph - 0.01 in   Overcast
7:23 PM 71.6 °F 69.8 °F 94% 29.96 in 2.0 mi South 6.9 mph - 0.00 in Rain Light Rain
7:35 PM 71.6 °F 69.8 °F 94% 29.96 in 1.2 mi SW 4.6 mph - 0.03 in Rain Rain
7:45 PM 71.6 °F 69.8 °F 94% 29.96 in 0.5 mi SW 6.9 mph - 0.14 in Fog , Rain Heavy Rain
7:51 PM 71.1 °F 70.0 °F 96% 29.94 in 0.5 mi SW 6.9 mph - 0.28 in Fog , Rain Heavy Rain
8:08 PM 71.6 °F 69.8 °F 94% 29.96 in 1.2 mi West 3.5 mph - 0.00 in Rain Light Rain
8:51 PM 72.0 °F 70.0 °F 93% 29.94 in 1.2 mi Calm Calm - 0.02 in   Overcast
8:59 PM 71.6 °F 69.8 °F 94% 29.96 in 2.0 mi Calm Calm - 0.00 in Rain Light Rain
9:24 PM 71.6 °F 69.8 °F 94% 29.96 in 3.0 mi Calm Calm - 0.00 in   Overcast
9:51 PM 70.0 °F 68.0 °F 93% 29.95 in 0.1 mi Calm Calm - 0.00 in Fog Fog
10:08 PM 69.8 °F 69.8 °F 100% 29.97 in 3.0 mi Calm Calm - N/A Fog Patches of Fog
10:51 PM 70.0 °F 69.1 °F 97% 29.95 in 2.0 mi NNW 4.6 mph - N/A   Overcast
11:10 PM 69.8 °F 68.0 °F 94% 29.98 in 4.0 mi NNW 4.6 mph - N/A Fog Patches of Fog
11:51 PM 70.0 °F 68.0 °F 93% 29.97 in 5.0 mi NNW 8.1 mph - N/A Fog Overcast